Temperature
18 17 17 16 15 15 15 15 15 15 15 15 14 14 14 13 13 13 13 13 13 13 13 13 13 13 13 13 13 13 13 13 13 13 14 14 14 13 13 13 13 12 13
19 18 17 16 15 15 15 15 15 15 15 14 14 13 13 12 12 12 12 12 12 12 13 13 13 13 13 13 13 12 12 12 13 13 13 13 13 13 13 13 13 12 13
19 18 17 16 15 15 15 15 15 15 15 14 13 13 12 12 11 11 11 11 11 12 12 12 13 13 13 13 12 12 12 12 13 13 13 12 12 13 13 13 12 13 12
19 17 16 15 15 15 15 15 15 15 15 14 13 12 12 11 11 11 11 11 11 12 12 12 13 12 12 12 12 12 12 12 13 13 12 12 12 13 13 12 12 12 12
18 17 16 16 15 15 15 15 15 15 15 14 13 12 11 11 11 12 12 12 12 12 12 12 12 12 12 12 12 12 12 13 13 12 12 12 12 13 13 13 12 12 12
18 17 17 16 15 15 15 15 16 16 15 14 13 12 12 12 12 12 13 13 13 13 13 12 13 13 13 13 13 13 13 13 12 12 12 12 12 13 13 13 13 13 12
18 17 17 16 15 15 15 15 16 16 15 14 14 13 12 12 12 12 13 13 13 13 13 13 13 13 13 13 13 13 13 13 13 12 12 12 13 13 13 13 13 13 13
18 17 16 15 15 15 15 15 15 16 15 15 14 13 12 12 13 13 13 13 13 13 13 13 13 13 13 13 13 13 13 13 13 12 12 12 13 13 13 13 13 13 13
18 17 16 15 15 14 14 14 15 15 15 15 14 14 13 13 13 13 13 13 13 13 13 13 13 13 13 13 13 13 13 13 13 12 12 12 12 12 12 12 12 12 13
17 17 16 15 15 14 14 14 14 15 15 15 15 14 14 13 13 13 13 13 13 13 13 13 13 13 13 13 13 13 13 12 12 12 12 12 12 12 12 12 12 12 12
18 17 16 15 15 14 14 14 14 14 14 15 15 14 14 12 12 12 13 13 13 13 13 13 13 13 13 12 12 12 12 12 12 12 12 12 12 12 12 12 12 12 12
18 18 17 16 15 14 14 14 14 14 14 14 13 13 13 12 12 13 13 13 13 13 13 12 12 12 12 12 12 12 12 12 11 11 11 12 12 11 11 11 11 11 11
18 18 17 16 16 15 14 14 14 14 14 13 13 13 13 13 13 13 13 13 13 12 12 12 12 12 12 12 12 12 12 12 11 11 11 12 11 11 11 11 11 11 11
17 17 18 17 16 16 15 14 14 14 14 14 14 13 13 13 13 12 12 12 12 12 12 12 12 12 12 12 12 12 12 11 11 11 11 11 11 10 10 10 10 10 10
17 17 18 17 17 16 16 15 15 14 14 14 14 13 13 13 13 12 12 12 12 12 12 12 12 12 12 12 12 12 11 11 11 10 10 10 10 10 9 9 9 9 9
18 18 18 18 17 17 16 16 15 15 14 14 14 14 13 13 13 12 12 12 12 12 12 12 12 11 11 11 11 11 11 10 10 10 9 9 9 9 8 8 8 8 8
18 18 18 18 18 17 17 16 16 15 14 14 14 13 13 13 13 12 12 12 12 12 12 12 11 11 11 11 10 10 10 10 9 9 9 8 8 8 7 8 8 8 8
18 18 18 18 18 18 17 17 16 15 14 14 14 13 13 13 13 12 12 12 12 12 12 11 11 11 11 10 10 10 10 9 8 8 7 7 7 7 7 7 7 7 7
18 18 18 19 18 18 17 17 16 15 14 14 13 13 13 13 13 12 12 12 12 11 11 11 11 11 10 10 10 9 9 9 8 7 6 6 7 7 7 7 7 7 7
18 18 18 18 18 18 17 16 15 15 14 14 13 13 13 13 13 12 12 12 11 11 11 11 11 11 10 9 9 9 9 8 7 6 6 6 6 6 6 6 6 6 6
17 18 18 18 18 18 17 17 16 14 14 13 13 13 13 13 12 12 12 11 11 11 11 11 10 10 9 9 9 8 7 8 6 6 6 5 5 6 5 5 5 5 6
16 17 18 18 18 18 18 17 16 15 14 13 13 13 12 12 12 12 11 11 11 10 10 10 10 9 9 8 7 6 6 6 5 6 6 5 5 5 5 5 5 5 5
16 17 18 18 18 18 17 16 16 15 13 13 12 12 12 11 11 11 11 10 10 10 10 10 9 8 8 7 6 5 5 6 4 4 4 4 3 4 4 4 4 4 4
16 16 17 17 17 17 17 17 16 15 13 12 12 12 11 11 11 10 10 10 10 10 9 9 8 7 7 6 5 5 4 3 2 2 2 2 1 2 2 2 3 3 3
15 16 16 17 16 16 16 16 15 13 13 12 12 11 11 10 10 10 10 10 9 9 9 8 7 6 6 5 4 4 2 1 0 -0 1 1 0 -0 -0 0 1 1 1
14 15 16 16 16 16 15 14 13 13 13 12 11 11 10 10 9 9 9 9 9 8 8 7 6 6 5 4 4 3 2 0 -0 -1 -1 -1 -1 -1 -1 -1 -1 -1 -2
Wind_Speed
10 16 19 18 17 16 14 13 12 11 11 12 12 12 12 10 9 7 6 5 5 5 5 3 2 3 5 7 8 9 8 8 8 7 6 6 6 6 5 4 4 2 3
14 17 20 18 17 16 14 13 12 11 10 10 10 10 10 9 8 6 5 5 6 7 8 8 7 6 7 9 9 8 7 6 7 6 3 1 3 5 5 4 4 4 3
16 17 19 18 17 16 14 13 12 11 11 10 9 9 9 9 8 7 6 5 6 8 9 9 10 10 10 10 9 7 6 6 5 4 3 3 2 4 6 5 5 5 5
16 17 17 18 17 16 15 13 12 11 10 10 10 9 9 9 8 7 7 6 7 7 8 9 10 10 10 9 7 6 5 5 5 4 4 5 4 5 7 7 6 7 7
15 16 17 19 17 16 14 13 12 11 11 10 10 10 10 9 8 7 7 7 7 7 7 8 8 8 8 7 6 5 5 5 3 5 5 5 5 5 8 9 8 9 9
15 15 18 18 17 16 14 13 12 11 11 11 10 10 9 8 8 8 7 7 6 6 6 6 6 6 6 6 5 5 5 5 7 4 5 5 5 6 9 9 10 10 11
15 14 18 18 17 16 14 13 12 12 11 11 10 9 8 7 7 7 6 6 5 5 5 5 5 5 4 4 4 5 6 6 7 5 5 5 6 7 9 10 10 11 12
14 14 16 18 17 16 15 13 12 12 11 11 10 9 8 7 6 6 5 4 4 3 4 4 4 4 4 4 4 5 6 7 6 5 5 5 6 8 9 10 11 12 13
13 13 14 16 17 16 15 13 12 12 11 11 9 8 7 7 6 6 5 3 2 2 3 3 3 3 4 4 5 5 5 5 6 5 5 5 7 9 10 10 10 11 11
12 13 13 14 15 15 14 14 13 12 11 10 8 8 8 8 7 6 4 3 2 2 3 4 4 5 5 5 5 5 4 6 5 4 5 6 8 9 9 10 10 11 11
11 12 12 13 13 13 12 13 14 13 11 10 9 9 8 6 5 5 4 4 2 3 4 4 5 5 3 4 5 4 3 4 4 5 5 8 8 8 9 10 10 11 12
13 13 12 13 12 12 11 11 11 11 11 10 9 10 8 6 4 3 6 5 4 4 5 5 4 2 2 2 3 2 3 4 4 4 5 8 7 6 7 10 11 12 13
13 14 13 13 13 12 10 10 9 8 9 9 9 9 7 6 5 4 4 4 4 3 3 3 2 3 4 4 4 4 5 5 4 4 6 9 7 7 9 11 12 12 12
12 14 14 14 13 13 11 10 9 8 8 8 9 10 8 6 5 5 4 3 3 3 3 2 3 4 3 4 4 4 4 4 3 3 8 12 11 11 12 12 12 12 12
12 13 15 15 15 14 12 10 9 9 9 10 9 10 9 7 6 5 4 4 3 3 3 3 2 3 3 3 4 4 4 3 2 1 6 13 13 13 13 13 13 13 13
13 13 14 16 16 15 13 12 11 10 10 10 10 11 11 8 6 6 5 4 4 4 3 3 3 3 3 3 3 3 3 2 0 1 4 9 14 14 14 14 14 13 13
13 13 14 15 16 16 15 14 10 10 11 10 10 11 11 9 8 7 5 5 5 5 5 4 4 3 3 2 2 3 3 1 2 3 4 4 7 11 13 14 14 14 13
13 13 13 13 16 17 15 13 10 10 11 10 10 11 11 11 10 8 6 5 6 5 4 3 3 3 3 3 3 3 2 1 3 3 4 3 4 4 7 11 13 13 13
14 13 13 14 16 16 14 12 11 10 10 9 10 9 11 11 11 9 7 7 7 5 4 4 4 3 4 4 4 3 2 2 3 3 3 2 3 3 5 8 10 11 12
14 13 13 14 15 14 12 10 8 9 8 7 8 9 12 11 12 11 8 8 7 5 4 4 5 4 4 5 4 3 1 1 3 3 2 2 1 3 6 10 11 11 12
13 13 14 14 15 14 12 12 10 8 7 7 7 11 12 13 13 11 8 7 6 5 5 4 4 4 5 5 4 2 1 2 3 3 3 4 3 5 8 11 12 12 11
15 14 14 15 16 16 14 12 9 9 7 8 8 10 12 13 12 10 9 8 7 6 6 5 4 3 4 5 4 4 3 2 2 3 4 4 5 6 9 12 13 13 13
17 16 13 16 17 17 16 12 12 9 7 6 8 8 9 12 12 11 11 9 7 6 5 5 5 4 3 4 5 4 3 3 5 4 4 5 6 7 9 12 14 15 14
19 15 15 15 17 18 18 17 19 13 11 9 9 8 10 11 12 12 12 10 8 6 6 5 5 4 3 3 2 3 2 3 4 5 5 5 7 9 11 10 13 14 13
18 15 15 16 17 18 18 19 18 15 12 12 12 13 11 10 11 11 11 9 8 6 6 5 4 3 3 2 2 2 2 3 5 5 8 9 9 9 10 12 12 12 13
16 15 15 17 18 18 18 18 18 19 19 19 16 14 11 9 8 10 10 9 8 6 6 5 4 3 2 1 1 2 3 4 5 6 8 12 13 11 13 11 10 10 13
Wind_Direction
157 155 151 148 142 139 134 129 125 125 127 128 126 123 116 109 102 93 85 71 57 47 40 71 93 129 125 115 107 97 84 72 63 61 53 40 23 12 7 359 313 249 38
154 154 150 149 145 142 137 131 127 125 125 126 126 123 117 109 102 93 85 75 61 47 45 56 62 83 97 102 99 92 81 68 61 61 42 50 39 357 338 331 313 332 340
152 153 154 151 147 145 140 134 130 129 126 125 123 123 120 111 101 92 85 77 63 51 47 50 53 67 76 86 84 77 66 54 50 41 294 325 14 1 326 310 288 287 287
154 155 158 149 150 148 143 139 137 135 131 127 125 123 119 111 102 92 84 77 70 59 53 53 54 61 66 69 66 55 41 30 33 326 323 352 339 3 326 307 286 272 272
156 157 150 150 153 151 148 144 142 140 136 131 127 123 119 113 105 91 83 79 75 65 58 57 58 55 55 52 45 31 22 16 350 297 348 343 331 349 322 310 297 288 281
159 159 152 156 156 155 152 149 146 146 143 137 132 129 125 118 108 97 91 87 82 72 63 58 55 51 46 38 26 15 7 360 303 336 341 338 335 343 316 306 300 292 286
161 160 157 160 161 160 159 156 153 151 149 145 140 138 135 126 116 107 102 97 91 76 63 54 50 47 38 24 8 1 358 343 317 332 335 337 344 332 313 305 299 292 288
161 163 160 164 164 165 165 163 161 158 156 152 150 146 140 130 120 115 112 106 92 70 53 41 34 27 18 9 1 356 352 331 315 326 334 332 357 322 313 310 305 297 288
164 167 167 172 172 169 169 168 167 165 162 160 158 149 131 116 115 112 108 106 79 42 28 18 14 18 20 17 10 4 354 327 306 328 330 336 349 324 322 326 329 326 319
170 175 175 178 179 178 176 172 169 167 165 162 155 135 124 122 118 113 128 92 41 13 13 19 31 41 46 41 29 17 346 295 320 331 332 358 344 334 341 351 355 356 359
180 184 184 184 183 182 180 173 174 171 167 166 161 144 161 174 163 151 85 77 56 46 51 51 54 54 57 82 57 22 318 333 345 344 354 1 346 350 358 11 19 22 24
187 190 191 192 188 186 181 180 184 180 176 186 177 173 182 175 161 140 116 100 90 94 96 79 73 75 336 33 64 351 346 341 340 349 11 3 354 2 27 38 35 31 30
193 191 196 196 194 191 187 188 185 184 180 185 183 180 179 175 170 174 168 152 144 143 121 103 95 47 32 27 6 7 357 343 343 352 25 24 27 44 49 43 37 31 26
202 198 196 197 196 197 194 192 191 187 185 182 183 184 182 178 178 171 171 151 150 133 104 80 54 56 43 31 12 3 358 348 349 13 51 44 52 57 52 44 34 26 19
215 206 200 198 198 197 197 196 196 193 189 185 182 186 185 181 178 166 159 145 132 116 114 94 73 61 39 27 19 7 356 353 6 79 83 59 58 58 50 40 30 20 12
221 213 203 201 200 198 197 197 196 194 191 188 183 184 184 181 172 163 154 137 122 112 99 92 79 67 43 20 8 1 349 346 48 124 112 83 64 57 48 36 25 14 4
228 218 207 203 201 200 200 198 194 191 188 186 182 182 182 177 167 156 144 134 122 116 110 96 83 58 39 12 358 355 340 313 159 141 124 101 81 63 48 33 19 8 357
234 222 210 202 203 201 199 195 190 187 184 182 179 178 177 169 157 144 135 127 124 118 106 88 65 49 28 358 345 344 317 226 184 150 136 106 70 45 41 25 10 0 350
235 225 213 204 203 200 194 189 185 181 180 177 171 167 163 156 148 136 125 122 124 112 98 86 63 38 19 359 341 334 318 201 168 171 156 118 68 23 360 359 351 348 340
238 229 217 204 199 190 183 179 173 169 167 160 154 153 148 143 137 127 120 120 117 111 103 94 80 54 24 352 332 337 13 177 192 185 204 208 295 332 338 343 339 334 327
232 222 213 201 189 178 176 175 169 164 148 135 131 136 134 133 130 124 121 118 113 108 104 96 82 57 32 0 341 331 195 197 214 205 252 266 278 303 319 334 334 328 319
227 218 209 198 186 181 178 172 166 143 125 116 115 119 124 127 126 124 124 119 115 112 103 87 74 62 43 22 2 335 317 219 185 224 273 273 290 303 319 327 324 319 315
224 215 203 194 184 179 169 152 136 121 117 116 120 116 120 123 121 122 120 117 116 114 103 88 74 62 50 41 26 5 333 316 315 273 272 283 295 308 315 316 313 312 308
219 210 200 188 180 173 164 162 161 161 154 148 140 127 123 120 118 121 119 118 116 113 110 99 82 70 50 35 41 21 343 317 299 303 283 279 293 301 303 304 307 304 300
215 202 190 180 176 170 170 168 167 157 141 134 130 128 123 117 119 122 121 121 117 114 111 106 95 74 57 29 1 334 302 284 270 284 295 303 302 299 301 300 298 296 298
210 194 182 175 172 169 168 167 163 151 145 142 141 137 131 126 125 126 127 124 121 119 117 110 101 91 64 50 307 297 299 295 297 290 292 301 304 304 303 294 289 292 298
Height
1506 1507 1509 1511 1513 1515 1516 1517 1518 1519 1519 1520 1521 1521 1521 1522 1522 1522 1522 1522 1523 1523 1523 1522 1522 1523 1524 1524 1524 1524 1523 1522 1522 1521 1521 1520 1520 1520 1521 1521 1521 1523 1522
1505 1507 1509 1511 1513 1515 1516 1517 1517 1518 1518 1519 1520 1520 1521 1521 1521 1521 1521 1521 1522 1522 1522 1522 1523 1523 1523 1524 1524 1524 1523 1523 1522 1521 1520 1520 1520 1520 1520 1520 1521 1522 1521
1505 1507 1509 1511 1513 1515 1516 1517 1517 1517 1517 1518 1519 1520 1520 1521 1521 1521 1521 1521 1521 1521 1522 1522 1523 1523 1523 1524 1524 1524 1524 1523 1522 1521 1521 1522 1521 1520 1520 1520 1520 1521 1521
1505 1508 1510 1511 1513 1515 1516 1517 1517 1517 1517 1517 1518 1519 1520 1521 1521 1521 1521 1521 1521 1521 1522 1522 1523 1523 1524 1524 1524 1524 1524 1523 1522 1521 1522 1522 1521 1520 1520 1520 1520 1520 1521
1506 1508 1510 1511 1513 1515 1516 1517 1517 1517 1517 1517 1518 1519 1520 1521 1522 1522 1521 1521 1521 1521 1522 1523 1523 1524 1524 1525 1525 1524 1524 1523 1522 1522 1522 1521 1521 1520 1520 1519 1519 1520 1520
1506 1508 1509 1511 1513 1515 1516 1516 1517 1517 1517 1518 1519 1520 1521 1522 1522 1522 1522 1522 1522 1522 1523 1523 1524 1524 1525 1525 1525 1524 1524 1523 1523 1525 1523 1522 1522 1520 1520 1519 1519 1519 1519
1506 1508 1509 1511 1513 1515 1516 1516 1517 1517 1518 1518 1519 1520 1522 1522 1523 1523 1523 1523 1523 1523 1524 1524 1524 1525 1525 1525 1525 1525 1525 1524 1524 1525 1524 1523 1522 1521 1520 1520 1519 1518 1518
1506 1508 1509 1511 1513 1515 1516 1517 1517 1517 1518 1519 1520 1521 1522 1523 1524 1524 1524 1524 1524 1524 1525 1525 1525 1525 1526 1526 1526 1525 1525 1525 1525 1525 1524 1523 1522 1521 1520 1519 1519 1518 1517
1505 1507 1509 1511 1513 1514 1515 1517 1517 1518 1518 1519 1520 1521 1522 1523 1524 1525 1525 1526 1526 1526 1526 1526 1526 1526 1526 1526 1526 1526 1526 1525 1525 1525 1524 1523 1522 1521 1520 1518 1517 1516 1515
1504 1506 1508 1510 1512 1514 1515 1516 1517 1518 1519 1519 1520 1521 1523 1524 1525 1526 1526 1526 1527 1527 1527 1527 1527 1527 1527 1526 1526 1526 1525 1525 1525 1524 1523 1522 1520 1519 1518 1517 1515 1514 1513
1502 1504 1507 1509 1511 1513 1515 1516 1517 1518 1518 1519 1520 1521 1523 1525 1526 1526 1526 1527 1527 1527 1527 1527 1527 1527 1526 1526 1525 1525 1524 1524 1524 1522 1521 1519 1518 1517 1516 1514 1513 1512 1511
1501 1503 1505 1507 1510 1512 1513 1515 1516 1517 1518 1520 1521 1522 1523 1525 1526 1526 1526 1527 1527 1527 1527 1527 1526 1526 1526 1525 1524 1523 1523 1523 1521 1520 1518 1517 1516 1515 1513 1511 1511 1509 1508
1500 1501 1503 1505 1507 1509 1511 1513 1515 1516 1517 1518 1520 1521 1522 1524 1525 1526 1527 1527 1527 1527 1527 1526 1526 1525 1524 1523 1523 1522 1521 1520 1519 1518 1515 1514 1513 1512 1510 1509 1508 1506 1505
1499 1500 1501 1503 1505 1507 1509 1510 1512 1514 1515 1517 1518 1520 1521 1523 1524 1525 1526 1526 1526 1526 1526 1525 1524 1523 1523 1522 1521 1520 1518 1517 1516 1515 1512 1511 1510 1509 1507 1505 1504 1503 1502
1496 1497 1499 1500 1502 1504 1506 1507 1509 1511 1513 1515 1516 1518 1520 1521 1523 1524 1525 1525 1525 1525 1524 1524 1523 1522 1521 1520 1518 1517 1515 1514 1513 1511 1509 1508 1507 1505 1504 1502 1501 1500 1499
1493 1494 1496 1497 1499 1501 1502 1504 1506 1508 1510 1512 1514 1516 1518 1520 1521 1522 1523 1523 1523 1523 1523 1522 1521 1520 1519 1517 1516 1514 1512 1511 1509 1508 1506 1505 1503 1502 1501 1500 1498 1497 1495
1489 1490 1492 1493 1495 1497 1499 1501 1503 1505 1507 1509 1511 1514 1515 1517 1519 1520 1521 1522 1522 1521 1521 1520 1519 1518 1516 1515 1513 1511 1509 1507 1505 1504 1503 1502 1501 1499 1498 1497 1495 1493 1491
1483 1485 1487 1489 1491 1492 1494 1496 1499 1501 1503 1506 1508 1511 1513 1515 1516 1518 1519 1519 1520 1520 1519 1518 1517 1516 1514 1512 1510 1508 1506 1504 1503 1501 1500 1499 1498 1497 1495 1493 1492 1489 1487
1477 1479 1481 1483 1485 1487 1490 1492 1494 1497 1500 1502 1505 1507 1509 1512 1514 1515 1516 1517 1518 1518 1517 1516 1515 1514 1512 1510 1508 1505 1503 1501 1499 1498 1498 1497 1495 1494 1492 1490 1488 1485 1483
1470 1473 1475 1477 1480 1482 1484 1486 1489 1492 1495 1498 1500 1503 1506 1508 1510 1512 1514 1515 1515 1516 1515 1514 1513 1511 1509 1507 1505 1503 1500 1498 1497 1496 1496 1494 1493 1491 1489 1486 1484 1481 1478
1462 1465 1468 1471 1473 1475 1477 1480 1482 1485 1489 1492 1496 1499 1502 1505 1507 1509 1511 1512 1513 1513 1513 1512 1511 1509 1507 1505 1503 1501 1498 1496 1495 1494 1493 1492 1490 1488 1485 1483 1480 1476 1472
1454 1457 1460 1463 1466 1469 1471 1474 1477 1480 1483 1487 1491 1495 1498 1501 1504 1506 1508 1510 1511 1511 1511 1510 1508 1506 1504 1502 1501 1499 1499 1498 1494 1492 1491 1489 1487 1485 1482 1479 1475 1471 1467
1445 1449 1452 1456 1459 1462 1464 1467 1470 1474 1478 1483 1487 1491 1495 1498 1501 1503 1506 1507 1508 1509 1508 1507 1506 1504 1502 1501 1499 1499 1498 1497 1494 1490 1487 1485 1482 1480 1477 1473 1470 1466 1461
1436 1441 1444 1448 1451 1454 1457 1461 1464 1468 1472 1477 1482 1487 1491 1495 1498 1501 1503 1505 1506 1506 1506 1504 1503 1502 1501 1499 1497 1496 1495 1493 1491 1487 1483 1480 1477 1473 1469 1466 1462 1459 1454
1428 1432 1436 1440 1444 1448 1452 1456 1460 1464 1468 1474 1479 1484 1488 1492 1495 1498 1501 1502 1503 1503 1503 1502 1500 1499 1498 1497 1495 1493 1491 1489 1487 1485 1479 1475 1472 1468 1463 1459 1455 1452 1448
1420 1423 1428 1433 1437 1442 1446 1451 1455 1459 1463 1469 1475 1480 1484 1489 1492 1496 1498 1500 1500 1500 1500 1499 1498 1496 1495 1494 1492 1490 1488 1486 1484 1481 1476 1470 1465 1461 1457 1452 1449 1445 1441